GW6301 Weather Reports


time (UTC)temp
C
wind
direction
speed
KPH
gust
KPH
rain 1hr
cm
rain 24hr
cm
rain mn
cm
humidity
%
barometer
mb
20260509212751 12 235 4.8 11.3 0.00 0.00 0.69 92 1006.1
20260509212251 12 258 3.2 9.7 0.00 0.00 0.69 92 1006.4
20260509211752 12 198 4.8 14.5 0.00 0.00 0.69 92 1006.4
20260509211251 12 219 4.8 12.9 0.00 0.00 0.69 93 1006.4
20260509210751 12 258 4.8 14.5 0.00 0.00 0.69 92 1006.4
20260509210251 12 308 3.2 12.9 0.00 0.00 0.69 93 1006.4
20260509205751 11 17 4.8 14.5 0.00 0.00 0.69 93 1006.8
20260509205251 11 164 6.4 11.3 0.00 0.00 0.69 93 1006.4
20260509204751 11 262 8.0 19.3 0.00 0.00 0.69 93 1006.8
20260509204252 12 230 3.2 9.7 0.00 0.00 0.69 92 1006.8
20260509203751 12 182 4.8 9.7 0.00 0.00 0.69 92 1006.8
20260509203251 12 321 8.0 19.3 0.00 0.00 0.69 92 1006.8
20260509202751 12 218 6.4 12.9 0.00 0.00 0.69 92 1006.8
20260509202252 12 159 3.2 8.0 0.00 0.00 0.69 92 1006.8
20260509201752 12 272 4.8 12.9 0.00 0.00 0.69 92 1006.8
20260509201252 12 168 6.4 16.1 0.00 0.00 0.69 92 1006.8
20260509200751 12 166 4.8 12.9 0.00 0.00 0.69 92 1007.1
20260509200251 11 232 4.8 9.7 0.00 0.00 0.69 92 1007.1
20260509195751 12 237 3.2 9.7 0.00 0.00 0.69 93 1007.1
20260509195251 11 226 6.4 12.9 0.00 0.00 0.69 93 1007.1
20260509194751 11 213 4.8 12.9 0.00 0.00 0.69 93 1007.1
20260509194252 11 194 4.8 12.9 0.00 0.00 0.69 93 1007.1
20260509193752 11 207 4.8 12.9 0.00 0.00 0.69 92 1007.1
20260509193253 11 215 6.4 12.9 0.00 0.00 0.69 92 1007.1
20260509192751 11 195 4.8 9.7 0.00 0.00 0.69 93 1007.1
20260509192252 11 196 3.2 11.3 0.00 0.00 0.69 93 1007.5
20260509191751 11 164 4.8 11.3 0.00 0.00 0.69 93 1007.5
20260509191251 11 307 4.8 11.3 0.00 0.00 0.69 93 1007.5
20260509190751 11 241 3.2 12.9 0.00 0.00 0.69 93 1007.5
20260509190251 11 12 1.6 9.7 0.00 0.00 0.69 94 1007.5
20260509185751 11 94 1.6 4.8 0.00 0.00 0.69 94 1007.5
20260509185251 11 217 4.8 9.7 0.00 0.00 0.69 94 1007.5
20260509184751 11 247 6.4 12.9 0.00 0.00 0.69 94 1007.5
20260509184251 11 259 4.8 11.3 0.00 0.00 0.69 94 1007.5
20260509183751 11 196 4.8 9.7 0.00 0.00 0.69 95 1007.5
20260509183251 11 260 4.8 14.5 0.00 0.00 0.69 95 1007.5
20260509182752 11 149 3.2 9.7 0.00 0.00 0.69 95 1007.5
20260509182251 11 248 3.2 16.1 0.00 0.00 0.69 94 1007.5
20260509181751 11 206 3.2 4.8 0.00 0.00 0.69 95 1007.5
20260509181251 11 133 1.6 8.0 0.00 0.00 0.69 95 1007.5
20260509180751 11 272 1.6 8.0 0.00 0.00 0.69 95 1007.5
20260509180251 11 127 3.2 9.7 0.00 0.00 0.69 95 1007.5
20260509175752 11 170 1.6 4.8 0.00 0.00 0.69 96 1007.5
20260509175251 10 234 3.2 11.3 0.00 0.00 0.69 96 1007.5
20260509174752 10 147 4.8 14.5 0.00 0.00 0.69 95 1007.5
20260509174252 10 258 6.4 14.5 0.00 0.00 0.69 96 1007.5
20260509173752 10 178 3.2 6.4 0.00 0.00 0.69 96 1007.5
20260509173251 10 180 3.2 9.7 0.00 0.00 0.69 96 1007.5
20260509172751 10 276 3.2 8.0 0.00 0.00 0.69 96 1007.5
20260509172252 10 255 1.6 1.6 0.00 0.00 0.69 96 1007.5
20260509171751 10 255 3.2 9.7 0.00 0.00 0.69 96 1007.5
20260509171251 10 316 3.2 8.0 0.00 0.00 0.69 96 1007.5
20260509170751 10 319 3.2 8.0 0.00 0.00 0.69 96 1007.5
20260509170251 10 275 4.8 14.5 0.00 0.00 0.69 95 1007.5
20260509165751 10 228 3.2 11.3 0.00 0.00 0.69 96 1007.5
20260509165255 10 147 1.6 6.4 0.00 0.00 0.69 95 1007.5
20260509164753 10 245 1.6 9.7 0.00 0.00 0.69 95 1007.5
20260509164251 10 175 3.2 16.1 0.00 0.00 0.69 96 1007.5
20260509163751 10 329 3.2 8.0 0.00 0.00 0.69 95 1007.8
20260509163251 11 305 3.2 11.3 0.00 0.00 0.69 93 1007.8
20260509162751 11 158 3.2 9.7 0.00 0.00 0.69 93 1007.8
20260509162252 11 265 3.2 11.3 0.00 0.00 0.69 93 1007.8
20260509161751 11 213 3.2 6.4 0.00 0.00 0.69 93 1007.8
20260509161252 11 180 3.2 11.3 0.00 0.00 0.69 93 1007.8
20260509160756 11 212 1.6 4.8 0.00 0.00 0.69 93 1008.1
20260509160251 11 266 1.6 6.4 0.00 0.00 0.69 93 1007.8
20260509155751 11 258 3.2 8.0 0.00 0.00 0.69 94 1008.1
20260509155251 10 221 4.8 11.3 0.00 0.00 0.69 94 1008.1
20260509154752 10 118 3.2 6.4 0.00 0.00 0.69 94 1008.1
20260509154251 10 58 3.2 8.0 0.00 0.00 0.69 94 1008.1
20260509153752 10 184 1.6 8.0 0.00 0.00 0.69 95 1008.1
20260509153251 10 60 3.2 8.0 0.00 0.00 0.69 95 1008.1
20260509152752 10 274 1.6 6.4 0.00 0.00 0.69 96 1008.1
20260509152251 10 234 0.0 4.8 0.00 0.00 0.69 97 1008.5
20260509151753 10 315 1.6 4.8 0.00 0.00 0.69 97 1008.5
20260509151251 10 306 3.2 9.7 0.00 0.00 0.69 97 1008.1
20260509150751 10 174 1.6 6.4 0.00 0.00 0.66 97 1008.1
20260509150251 10 259 3.2 9.7 0.00 0.00 0.66 97 1008.1
20260509145751 10 239 1.6 6.4 0.00 0.00 0.66 97 1008.5
20260509145252 10 192 3.2 6.4 0.00 0.00 0.66 97 1008.5
20260509144751 10 144 4.8 11.3 0.00 0.00 0.66 97 1008.5
20260509144252 10 185 1.6 4.8 0.00 0.00 0.66 97 1008.5
20260509143752 9 128 0.0 4.8 0.00 0.00 0.66 98 1008.5
20260509143251 9 250 1.6 8.0 0.00 0.00 0.66 98 1008.5
20260509142751 9 346 1.6 6.4 0.00 0.00 0.64 98 1008.5
20260509142251 9 255 3.2 9.7 0.00 0.00 0.64 98 1008.5
20260509141751 9 217 3.2 11.3 0.00 0.00 0.64 99 1008.5
20260509141252 9 237 1.6 4.8 0.00 0.00 0.61 99 1008.5
20260509140751 9 281 0.0 1.6 0.00 0.00 0.61 98 1008.8
20260509140251 9 352 0.0 4.8 0.00 0.00 0.58 98 1008.8
20260509135751 9 287 0.0 3.2 0.00 0.00 0.58 99 1008.8
20260509135252 9 123 1.6 8.0 0.00 0.00 0.58 99 1008.8
20260509134752 8 245 3.2 8.0 0.00 0.00 0.56 99 1008.8
20260509134252 8 282 1.6 6.4 0.00 0.00 0.56 99 1008.8
20260509133752 8 222 0.0 4.8 0.00 0.00 0.56 99 1008.8
20260509133251 8 216 1.6 4.8 0.00 0.00 0.53 99 1008.8
20260509132751 8 276 1.6 4.8 0.00 0.00 0.51 98 1008.8
20260509132251 8 186 0.0 4.8 0.00 0.00 0.51 99 1008.8
20260509131751 8 328 0.0 4.8 0.00 0.00 0.51 99 1008.8
20260509131251 8 337 0.0 3.2 0.00 0.00 0.48 99 1008.8
20260509130752 8 238 3.2 9.7 0.00 0.00 0.48 99 1008.8
20260509130251 8 267 1.6 6.4 0.00 0.00 0.46 99 1008.8
20260509125751 8 329 1.6 6.4 0.00 0.00 0.46 99 1008.8
20260509125251 8 227 1.6 4.8 0.00 0.00 0.46 99 1008.8
20260509124751 8 335 0.0 3.2 0.00 0.00 0.46 99 1008.8
20260509124251 8 162 1.6 4.8 0.00 0.00 0.43 99 1008.8
20260509123751 8 225 3.2 9.7 0.00 0.00 0.41 99 1008.8
20260509123252 8 250 1.6 4.8 0.00 0.00 0.41 99 1009.1
20260509122752 7 257 1.6 4.8 0.00 0.00 0.38 99 1009.1
20260509122251 7 308 0.0 4.8 0.00 0.00 0.36 99 1008.8
20260509121752 7 95 0.0 1.6 0.00 0.00 0.33 99 1009.1
20260509121251 7 243 0.0 1.6 0.00 0.00 0.30 99 1009.1
20260509120752 7 11 0.0 4.8 0.00 0.00 0.28 99 1009.1
20260509120251 7 313 0.0 1.6 0.00 0.00 0.25 99 1009.1
20260509115751 7 339 0.0 1.6 0.00 0.00 0.25 99 1009.1
20260509115251 7 234 0.0 4.8 0.00 0.00 0.23 99 1009.1
20260509114751 7 205 0.0 3.2 0.00 0.00 0.20 99 1009.1
20260509114251 7 335 0.0 4.8 0.00 0.00 0.18 99 1009.1
20260509113752 7 203 0.0 4.8 0.00 0.00 0.15 99 1009.1
20260509113252 7 74 0.0 4.8 0.00 0.00 0.10 98 1009.1
20260509112751 7 299 0.0 1.6 0.00 0.00 0.08 98 1009.1
20260509112251 7 19 0.0 3.2 0.00 0.00 0.05 98 1009.1
20260509111751 7 242 1.6 4.8 0.00 0.00 0.03 98 1009.1
20260509111251 7 150 1.6 4.8 0.00 0.00 0.00 98 1009.1
20260509110751 7 183 0.0 1.6 0.00 0.00 0.00 98 1009.1
20260509110251 7 285 1.6 4.8 0.00 0.00 0.00 98 1009.1
20260509105751 7 255 0.0 4.8 0.00 0.00 0.00 98 1009.1
20260509105251 7 2 1.6 12.9 0.00 0.00 0.00 98 1009.1
20260509104751 7 220 1.6 4.8 0.00 0.00 0.00 97 1008.8
20260509104251 7 322 0.0 3.2 0.00 0.00 0.00 97 1008.8
20260509103751 6 103 0.0 1.6 0.00 0.00 0.00 96 1008.8
20260509103251 6 27 0.0 3.2 0.00 0.00 0.00 96 1008.8
20260509102751 6 23 0.0 1.6 0.00 0.00 0.00 95 1008.8
20260509102251 6 28 0.0 0.0 0.00 0.00 0.00 95 1008.8
20260509101752 6 41 0.0 1.6 0.00 0.00 0.00 94 1008.8
20260509101251 6 17 0.0 1.6 0.00 0.00 0.00 94 1008.8
20260509100752 6 20 1.6 3.2 0.00 0.00 0.00 94 1008.8
20260509100251 6 264 0.0 1.6 0.00 0.00 0.00 94 1008.8
20260509095753 6 349 0.0 1.6 0.00 0.00 0.00 94 1008.8
20260509095251 6 7 0.0 0.0 0.00 0.00 0.00 93 1008.8
20260509094753 6 352 0.0 1.6 0.00 0.00 0.00 94 1008.8
20260509094251 6 53 0.0 1.6 0.00 0.00 0.00 93 1008.8
20260509093752 6 61 0.0 0.0 0.00 0.00 0.00 92 1008.8
20260509093251 6 0 0.0 1.6 0.00 0.00 0.00 92 1008.8
20260509092751 5 28 0.0 1.6 0.00 0.00 0.00 92 1008.8
20260509092251 5 344 0.0 1.6 0.00 0.00 0.00 92 1008.8
20260509091752 5 124 0.0 1.6 0.00 0.00 0.00 92 1008.8
20260509091251 5 208 0.0 3.2 0.00 0.00 0.00 92 1008.8
20260509090751 5 39 0.0 0.0 0.00 0.00 0.00 93 1008.8
20260509090251 5 10 0.0 1.6 0.00 0.00 0.00 93 1009.1
20260509085751 5 317 0.0 1.6 0.00 0.00 0.00 93 1009.1
20260509085251 5 67 0.0 3.2 0.00 0.00 0.00 94 1009.1
20260509084751 5 248 0.0 3.2 0.00 0.00 0.00 95 1008.8
20260509084251 5 202 0.0 1.6 0.00 0.00 0.00 95 1008.8
20260509083751 5 292 0.0 3.2 0.00 0.00 0.00 95 1008.8
20260509083251 5 4 1.6 3.2 0.00 0.00 0.00 95 1009.1
20260509082753 5 358 0.0 3.2 0.00 0.00 0.00 95 1009.1
20260509082251 5 28 0.0 1.6 0.00 0.00 0.00 95 1009.5
20260509081751 5 341 0.0 0.0 0.00 0.00 0.00 95 1009.5
20260509081252 5 13 0.0 0.0 0.00 0.00 0.00 95 1009.5
20260509080752 5 39 0.0 0.0 0.00 0.00 0.00 95 1009.1
20260509080252 5 4 0.0 1.6 0.00 0.00 0.00 94 1009.5
20260509075751 5 357 0.0 0.0 0.00 0.00 0.00 94 1009.1
20260509075251 5 20 0.0 0.0 0.00 0.00 0.00 94 1009.5
20260509074751 5 44 0.0 0.0 0.00 0.00 0.00 94 1009.1
20260509074251 5 10 0.0 1.6 0.00 0.00 0.00 94 1009.5
20260509073752 5 14 0.0 1.6 0.00 0.00 0.00 94 1009.5
20260509073252 5 355 0.0 0.0 0.00 0.00 0.00 94 1009.5
20260509072751 5 27 0.0 1.6 0.00 0.00 0.00 93 1009.5
20260509072251 5 57 0.0 0.0 0.00 0.00 0.00 93 1009.5
20260509071751 5 6 0.0 1.6 0.00 0.00 0.00 93 1009.5
20260509071251 5 40 0.0 0.0 0.00 0.00 0.00 93 1009.5
20260509070752 5 10 0.0 1.6 0.00 0.00 0.00 92 1009.5
20260509070251 5 32 0.0 1.6 0.00 0.00 0.00 92 1009.5
20260509065751 5 55 0.0 1.6 0.00 0.00 0.00 92 1009.5
20260509065251 5 5 0.0 1.6 0.00 0.00 0.00 91 1009.5
20260509064751 5 59 0.0 1.6 0.00 0.00 0.00 90 1009.8
20260509064251 5 31 0.0 1.6 0.00 0.00 0.00 90 1009.5
20260509063751 5 350 0.0 0.0 0.00 0.00 0.00 89 1009.8
20260509063251 4 32 0.0 1.6 0.00 0.00 0.00 89 1009.8
20260509062752 4 42 0.0 1.6 0.00 0.00 0.00 89 1009.8
20260509062251 4 358 0.0 3.2 0.00 0.00 0.00 89 1009.8
20260509061751 4 354 0.0 1.6 0.00 0.00 0.00 89 1010.2
20260509061251 4 31 0.0 1.6 0.00 0.00 0.00 90 1010.2
20260509060752 3 22 0.0 0.0 0.00 0.00 0.00 90 1009.8
20260509060251 3 18 0.0 0.0 0.00 0.00 0.00 90 1009.8
20260509055751 3 10 0.0 1.6 0.00 0.00 0.00 89 1010.2
20260509055251 3 42 0.0 1.6 0.00 0.00 0.00 90 1010.2
20260509054752 3 41 0.0 1.6 0.00 0.00 0.00 90 1010.2
20260509054251 3 28 0.0 3.2 0.00 0.00 0.00 90 1010.2
20260509053751 3 14 1.6 3.2 0.00 0.00 0.00 89 1010.2
20260509053251 3 43 1.6 3.2 0.00 0.00 0.00 90 1010.2
20260509052751 3 21 0.0 3.2 0.00 0.00 0.00 90 1010.5
20260509052251 3 39 1.6 1.6 0.00 0.00 0.00 90 1010.5
20260509051751 3 56 0.0 3.2 0.00 0.00 0.00 90 1010.5
20260509051251 3 42 1.6 3.2 0.00 0.00 0.00 90 1010.2
20260509050752 3 56 1.6 3.2 0.00 0.00 0.00 89 1010.5
20260509050251 2 17 1.6 3.2 0.00 0.00 0.00 89 1010.5
20260509045751 3 12 1.6 3.2 0.00 0.00 0.00 90 1010.5
20260509045251 3 26 0.0 3.2 0.00 0.00 0.00 89 1010.5
20260509044751 2 15 1.6 4.8 0.00 0.00 0.00 89 1010.5
20260509044251 2 33 1.6 4.8 0.00 0.00 0.00 89 1010.5
20260509043752 2 24 1.6 3.2 0.00 0.00 0.00 90 1010.5
20260509043251 2 21 1.6 3.2 0.00 0.00 0.00 90 1010.5
20260509042751 2 20 1.6 3.2 0.00 0.00 0.00 89 1010.5
20260509042252 2 33 1.6 3.2 0.00 0.00 0.00 89 1010.5
20260509041751 2 38 1.6 3.2 0.00 0.00 0.00 89 1010.5
20260509041251 3 35 1.6 3.2 0.00 0.00 0.00 90 1010.8
20260509040751 3 30 0.0 1.6 0.00 0.00 0.00 89 1010.8
20260509040251 3 39 0.0 3.2 0.00 0.00 0.41 89 1010.8
20260509035751 3 17 0.0 1.6 0.00 0.00 0.41 90 1010.5
20260509035251 3 16 0.0 1.6 0.00 0.00 0.41 89 1010.5
20260509034751 3 41 0.0 1.6 0.00 0.00 0.41 89 1010.5
20260509034251 3 35 0.0 1.6 0.00 0.00 0.41 89 1010.5
20260509033751 3 49 0.0 1.6 0.00 0.00 0.41 89 1010.5
20260509033251 3 11 1.6 3.2 0.00 0.00 0.41 88 1010.5
20260509032752 3 24 0.0 1.6 0.00 0.00 0.41 88 1010.5
20260509032251 3 20 1.6 3.2 0.00 0.00 0.41 88 1010.5
20260509031751 3 28 1.6 3.2 0.00 0.00 0.41 88 1010.8
20260509031251 4 9 0.0 1.6 0.00 0.00 0.41 88 1010.5
20260509030751 4 25 1.6 3.2 0.00 0.00 0.41 87 1010.8
20260509025805 4 47 0.0 1.6 0.00 0.00 0.41 88 1010.8
20260509025251 4 14 1.6 3.2 0.00 0.00 0.41 88 1010.8
20260509024751 4 10 1.6 3.2 0.00 0.00 0.41 87 1010.8
20260509024252 5 36 0.0 1.6 0.00 0.00 0.41 87 1010.8
20260509023751 5 70 0.0 3.2 0.00 0.00 0.41 86 1010.8
20260509023251 5 11 1.6 3.2 0.00 0.00 0.41 86 1010.8
20260509022751 5 35 0.0 1.6 0.00 0.00 0.41 86 1010.8
20260509022252 5 25 0.0 1.6 0.00 0.00 0.41 86 1010.8
20260509021751 5 26 1.6 3.2 0.00 0.00 0.41 85 1010.8
20260509021252 5 21 1.6 3.2 0.00 0.00 0.41 85 1010.8
20260509020751 5 13 0.0 1.6 0.00 0.00 0.41 86 1010.8
20260509020251 5 9 0.0 0.0 0.00 0.00 0.41 85 1010.8
20260509015751 5 7 0.0 0.0 0.00 0.00 0.41 85 1010.8
20260509015252 5 7 0.0 1.6 0.00 0.00 0.41 86 1010.8
20260509014751 5 20 0.0 1.6 0.00 0.00 0.41 85 1010.8
20260509014251 5 26 0.0 1.6 0.00 0.00 0.41 86 1010.8
20260509013751 5 1 0.0 1.6 0.00 0.00 0.41 85 1010.5
20260509013252 5 24 0.0 1.6 0.00 0.00 0.41 85 1010.5
20260509012752 5 34 0.0 1.6 0.00 0.00 0.41 85 1010.5
20260509012251 5 37 0.0 1.6 0.00 0.00 0.41 85 1010.5
20260509011752 5 31 0.0 1.6 0.00 0.00 0.41 85 1010.5
20260509011251 5 49 0.0 1.6 0.00 0.00 0.41 84 1010.5
20260509010753 5 30 0.0 1.6 0.00 0.00 0.41 84 1010.2
20260509010251 5 49 0.0 1.6 0.00 0.00 0.41 83 1010.2
20260509005751 5 34 0.0 1.6 0.00 0.00 0.41 83 1010.2
20260509005251 6 13 1.6 3.2 0.00 0.00 0.41 83 1010.2
20260509004751 6 30 0.0 3.2 0.00 0.00 0.41 82 1010.2
20260509004251 6 30 0.0 1.6 0.00 0.00 0.41 80 1010.2
20260509003751 6 33 1.6 3.2 0.00 0.00 0.41 79 1010.2
20260509003252 6 358 0.0 1.6 0.00 0.00 0.41 78 1009.8
20260509002752 6 43 0.0 1.6 0.00 0.00 0.41 77 1009.8
20260509002251 7 33 0.0 1.6 0.00 0.00 0.41 77 1009.8
20260509001751 7 17 0.0 1.6 0.00 0.00 0.41 77 1009.8
20260509001251 7 39 0.0 1.6 0.00 0.00 0.41 74 1009.8
20260509000752 7 32 0.0 3.2 0.00 0.00 0.41 74 1009.8
20260509000251 8 30 0.0 1.6 0.00 0.00 0.41 70 1009.8
20260508235751 8 30 0.0 1.6 0.00 0.00 0.41 69 1009.8
20260508235251 8 3 0.0 0.0 0.00 0.00 0.41 67 1009.5
20260508234752 9 3 0.0 0.0 0.00 0.00 0.41 66 1009.5
20260508234251 9 4 0.0 1.6 0.00 0.00 0.41 66 1009.5
20260508233751 10 356 0.0 1.6 0.00 0.00 0.41 65 1009.5
20260508233251 10 358 1.6 4.8 0.00 0.00 0.41 61 1009.5
20260508232751 10 14 3.2 6.4 0.00 0.00 0.41 58 1009.5
20260508232251 10 41 1.6 4.8 0.00 0.00 0.41 58 1009.5
20260508231751 10 317 1.6 3.2 0.00 0.00 0.41 64 1009.5
20260508231251 10 21 1.6 6.4 0.00 0.00 0.41 56 1009.5
20260508230751 10 359 1.6 6.4 0.00 0.00 0.41 57 1009.5
20260508230251 10 21 3.2 6.4 0.00 0.00 0.41 55 1009.5
20260508225751 11 34 0.0 1.6 0.00 0.00 0.41 56 1009.5
20260508225252 11 351 1.6 4.8 0.00 0.00 0.41 56 1009.5
20260508224751 11 257 1.6 6.4 0.00 0.00 0.41 56 1009.5
20260508224252 11 66 1.6 3.2 0.00 0.00 0.41 56 1009.5
20260508223751 11 282 0.0 3.2 0.00 0.00 0.41 60 1009.5
20260508223251 11 40 3.2 6.4 0.00 0.00 0.41 56 1009.5
20260508222751 11 296 3.2 9.7 0.00 0.00 0.41 55 1009.5
20260508222252 11 23 1.6 4.8 0.00 0.00 0.41 55 1009.5
20260508221751 11 328 1.6 3.2 0.00 0.00 0.41 56 1009.1
20260508221251 11 35 3.2 8.0 0.00 0.00 0.41 55 1009.5
20260508220751 11 160 1.6 8.0 0.00 0.00 0.41 55 1009.5
20260508220251 11 267 0.0 4.8 0.00 0.00 0.41 56 1009.5
20260508215752 11 287 3.2 6.4 0.00 0.00 0.41 55 1009.5
20260508215251 11 221 3.2 9.7 0.00 0.00 0.41 53 1009.5
20260508214751 11 259 1.6 8.0 0.00 0.00 0.41 54 1009.5
20260508214251 11 74 4.8 9.7 0.00 0.00 0.41 54 1009.5
20260508213751 11 278 6.4 14.5 0.00 0.00 0.41 54 1009.5
20260508213251 12 267 3.2 6.4 0.00 0.00 0.41 56 1009.5